Skip Page Navigation
NASA JPL Caltech
NASA Logo - Jet Propulsion Laboratory + View the NASA Portal
+ Center for Near-Earth Object Studies
JPL Home Earth Solar System Stars & Galaxies Technology
JPL Solar System Dynamics
BODIES ORBITS EPHEMERIDES TOOLS PHYSICAL DATA DISCOVERY FAQ SITE MAP
IMPORTANT: The SSD Announcement email list is now available. Major changes are coming in the near future, including possible hostname and/or URL changes. To be notified of such changes, subscribe to this email list.

Please visit this page for more details.


JPL Small-Body Database Browser
Search: [ help ]  
233622 (2007 TJ236)
Classification: Main-belt Asteroid          SPK-ID: 2233622
Ephemeris | Orbit Diagram | Orbital Elements | Mission Design | Physical Parameters | Discovery Circumstances | Close-Approach Data ]

[ show orbit diagram ]
Orbital Elements at Epoch 2458600.5 (2019-Apr-27.0) TDB
Reference: JPL 7 (heliocentric ecliptic J2000)
 Element Value Uncertainty (1-sigma)   Units 
e .03289610756989676 7.8214e-08  
a 3.038181125122224 4.6868e-08 au
q 2.938236792013373 2.49e-07 au
i 2.456519559224782 8.9233e-06 deg
node 141.8254972601602 0.00019433 deg
peri 243.0656549271832 0.00024263 deg
M 67.20713064184689 0.00014088 deg
tp 2458239.396438335049
(2018-Apr-30.89643834)
0.00075793 TDB
period 1934.278118376309
5.30
4.4758e-05
1.225e-07
d
yr
n .1861159450545793 4.3066e-09 deg/d
Q 3.138125458231075 4.8409e-08 au
  Orbit Determination Parameters
   # obs. used (total)      112  
   data-arc span      5418 days (14.83 yr)  
   first obs. used      2004-02-12  
   last obs. used      2018-12-13  
   planetary ephem.      DE431  
   SB-pert. ephem.      SB431-N16  
   condition code      0  
   norm. resid. RMS      .63968  
   source      ORB  
   producer      Otto Matic  
   solution date      2019-Jul-14 09:47:16  

Additional Information
 Earth MOID = 1.94113 au 
 Jupiter MOID = 2.01447 au 
 T_jup = 3.239 
[ show covariance matrix ]

Ephemeris | Orbit Diagram | Orbital Elements | Mission Design | Physical Parameters | Discovery Circumstances | Close-Approach Data ]

Physical Parameter Table
Parameter Symbol Value Units Sigma Reference Notes
absolute magnitude H 16.6   n/a MPO418247  

233622 (2007 TJ236)          Discovered 2007-Oct-09 by Mt. Lemmon Survey at Mount Lemmon
Reference: 20100228/Numbers.arcLast Updated: 2010-03-03

[ show close-approach data ]
Alternate Designations
 2007 TJ236 = 2004 CS119 = 2008 YG156 
Ephemeris | Orbit Diagram | Orbital Elements | Mission Design | Physical Parameters | Discovery Circumstances | Close-Approach Data ]
ABOUT SSD CREDITS/AWARDS PRIVACY/COPYRIGHT GLOSSARY LINKS
FirstGov 2019-Dec-11 01:29 UT
(server date/time)  
NASA Home Page
Site Manager:   Ryan S. Park
Webmaster  Alan B. Chamberlin